www.pogodaiklimat.ru

Погода и климат >> Архив погоды >> Венгрия >> Zalaegerszeg


ПОГОДА в Zalaegerszeg

  • Прогноз погоды в Zalaegerszeg
  • Монитор погоды в Zalaegerszeg
  • Климат города

АРХИВ ПОГОДЫ в Zalaegerszeg

Время (UTC), дата Ветер
(напр.,м/с)
 
Видим.   Явления Облачность Т
(С)
Тd
(С)
f
(%)
Тe
(С)
Тes
(С)
Комфортность P
(гПа)
Po
(гПа)
Тmin
(С)
Tmax
(С)
R
(мм)
R24
(мм)
S
(см)
07 11.08 С 4
{7}
н/о н/о +17.5 +15.3 87 +17 +17 1022.5 994.0
08 11.08 С 4
{8}
н/о н/о +18.7 +15.8 83 +20 +20 1022.4 994.0
09 11.08 С 4 н/о н/о +20.9 +16.3 75 +25 +25 комфорт 1022.0 993.8
10 11.08 С 3
{10}
н/о н/о +22.8 +16.8 69 +28 +28 душно 1021.4 993.4
11 11.08 С 4
{7}
н/о н/о +23.5 +16.5 65 +27 +27 душно 1021.1 993.2
12 11.08 С 4
{9}
н/о н/о +24.1 +16.9 64 +28 +28 душно 1020.9 993.1
13 11.08 С 4
{8}
н/о н/о +24.7 +16.7 61 +28 +28 душно 1020.6 992.8
14 11.08 С 3
{7}
н/о н/о +25.2 +16.1 57 +29 +29 душно 1020.2 992.5
15 11.08 С 4
{7}
н/о н/о +25.5 +14.9 52 +28 +28 жарко 1019.6 991.9
16 11.08 СВ 3
{8}
н/о н/о +24.2 +15.7 59 +27 +27 жарко 1019.8 992.0
17 11.08 СВ 2 н/о н/о +23.4 +14.1 56 +27 +27 душно 1019.8 991.9
18 11.08 СВ 2 н/о н/о +22.5 +13.0 55 +25 +25 комфорт 1020.0 992.0 +25.9
19 11.08 В 1 н/о н/о +20.8 +15.6 72 +25 +25 комфорт 1020.4 992.3
20 11.08 В 1 н/о н/о +20.3 +15.5 74 +24 +24 комфорт 1021.0 992.8
21 11.08 штиль 0 н/о н/о +19.2 +15.5 79 +21 +21 комфорт 1021.2 992.9
22 11.08 штиль 0 н/о н/о +19.1 +15.8 81 +20 +20 1021.4 993.1
23 11.08 СЗ 1 н/о н/о +18.6 +15.8 84 +21 +21 комфорт 1021.6 993.2
00 12.08 СЗ 1 н/о н/о +19.2 +14.9 76 +22 +22 комфорт 1021.3 993.0
01 12.08 СЗ 1 н/о н/о +17.9 +14.4 80 +19 +19 1021.2 992.8
02 12.08 З 1 н/о н/о +16.1 +14.8 92 +17 +17 1021.1 992.5
03 12.08 штиль 0 н/о н/о +15.8 +14.5 92 +16 +16 1021.1 992.5
04 12.08 СЗ 1 н/о н/о +15.6 +12.9 84 +16 +16 1021.0 992.4
05 12.08 штиль 0 н/о н/о +15.9 +13.6 86 +16 +16 1021.3 992.7
06 12.08 штиль 0 н/о н/о +18.8 +14.3 75 +20 +20 1021.1 992.8 +15.1
07 12.08 С 2 н/о н/о +21.2 +12.4 57 +23 +23 комфорт 1020.9 992.8
08 12.08 СВ 2 н/о н/о +23.2 +11.9 49 +26 +26 жарко 1020.7 992.8
09 12.08 СВ 2 н/о н/о +24.5 +10.0 40 +25 +25 комфорт 1020.4 992.6
10 12.08 В 3 н/о н/о +25.5 +10.2 38 +26 +26 жарко 1020.1 992.4
11 12.08 В 2 н/о н/о +26.2 +10.4 37 +27 +27 жарко 1019.7 992.1
12 12.08 ЮВ 2 н/о н/о +27.1 +10.8 36 +28 +28 жарко 1019.0 991.5
13 12.08 Ю 3
{8}
н/о н/о +27.6 +10.8 35 +28 +28 жарко 1018.2 990.8
14 12.08 ЮЗ 3 н/о н/о +27.5 +11.9 38 +29 +29 жарко 1017.5 990.1
15 12.08 Ю 3 н/о н/о +27.7 +12.1 38 +29 +29 жарко 1016.7 989.3
16 12.08 Ю 3 н/о н/о +27.3 +13.3 42 +29 +29 жарко 1016.1 988.7
17 12.08 Ю 3 н/о н/о +26.3 +13.1 44 +28 +28 жарко 1015.6 988.1
18 12.08 ЮВ 2 н/о н/о +24.5 +14.3 53 +27 +27 жарко 1015.3 987.7 +28.2
19 12.08 Ю 1 н/о н/о +21.9 +14.5 63 +25 +25 комфорт 1015.7 987.8
20 12.08 Ю 2 н/о н/о +21.2 +14.4 65 +24 +24 комфорт 1015.8 987.8
21 12.08 ЮВ 2 н/о н/о +20.7 +15.0 70 +24 +24 комфорт 1015.7 987.7
22 12.08 Ю 2 н/о н/о +20.3 +14.9 71 +23 +23 комфорт 1015.4 987.4
23 12.08 ЮЗ 2 н/о н/о +19.4 +15.1 76 +22 +22 комфорт 1015.3 987.2
00 13.08 Ю 2 н/о н/о +19.6 +15.3 76 +22 +22 комфорт 1014.9 986.8
01 13.08 Ю 2 н/о н/о +19.3 +15.4 78 +22 +22 комфорт 1014.6 986.5
02 13.08 Ю 2 н/о н/о +18.4 +15.5 83 +19 +19 1014.3 986.1
03 13.08 Ю 2 н/о н/о +18.7 +15.6 82 +20 +20 1013.7 985.6
04 13.08 ЮВ 3 н/о н/о +17.7 +15.5 87 +18 +18 1013.4 985.2
05 13.08 Ю 1 н/о н/о +18.0 +15.6 86 +19 +19 1013.2 985.0
06 13.08 Ю 2 н/о н/о +20.5 +16.9 80 +24 +24 комфорт 1013.1 985.1 +16.9
07 13.08 Ю 3 н/о н/о +22.5 +18.1 76 +28 +28 душно 1012.9 985.1
08 13.08 Ю 3 н/о н/о +24.8 +18.5 68 +29 +29 душно 1012.4 984.9
09 13.08 Ю 3
{7}
н/о н/о +26.5 +18.9 63 +32 +32 очень
душно
1012.2 984.8
10 13.08 Ю 4
{7}
н/о н/о +27.7 +18.1 56 +32 +32 очень
душно
1012.0 984.7
11 13.08 Ю 4
{8}
н/о н/о +29.0 +17.5 50 +33 +33 очень
душно
1011.4 984.3
12 13.08 Ю 4
{8}
н/о н/о +29.7 +18.5 51 +35 +35 очень
душно
1010.9 983.8
13 13.08 Ю 5
{7}
н/о н/о +30.1 +17.2 46 +34 +34 очень
душно
1010.2 983.2
14 13.08 Ю 4
{9}
н/о н/о +30.6 +15.5 40 +33 +33 душно 1009.4 982.5
15 13.08 Ю 4
{9}
н/о н/о +30.7 +14.3 37 +33 +33 душно 1008.8 981.9
16 13.08 Ю 4
{7}
н/о н/о +30.2 +14.7 39 +32 +32 жарко 1008.3 981.4
17 13.08 Ю 4 н/о н/о +28.9 +17.8 51 +33 +33 очень
душно
1007.8 980.8
18 13.08 Ю 3 н/о н/о +26.9 +17.9 58 +31 +31 душно 1008.3 981.1 +31.1
19 13.08 ЮВ 3 н/о н/о +24.7 +18.2 67 +29 +29 душно 1008.5 981.1
20 13.08 ЮВ 3 н/о н/о +23.6 +17.6 69 +28 +28 душно 1008.6 981.1
21 13.08 ЮВ 4 н/о н/о +23.5 +17.3 68 +27 +27 душно 1008.5 981.0
22 13.08 Ю 3 н/о н/о +22.7 +17.2 71 +28 +28 душно 1008.6 981.0
23 13.08 Ю 3 н/о н/о +22.2 +16.5 70 +26 +26 душно 1009.0 981.3
00 14.08 Ю 3 н/о н/о +21.1 +16.1 73 +24 +24 комфорт 1009.0 981.2
01 14.08 Ю 3 н/о н/о +21.3 +16.1 72 +25 +25 комфорт 1009.2 981.4
02 14.08 С 2 н/о н/о +19.3 +16.3 83 +22 +22 комфорт 1010.3 982.3
03 14.08 В 2 н/о н/о +19.5 +16.3 82 +22 +22 комфорт 1010.5 982.5
04 14.08 В 2 н/о н/о +19.5 +16.0 80 +22 +22 комфорт 1010.7 982.7
05 14.08 СВ 3 н/о н/о +20.3 +15.5 74 +23 +23 комфорт 1010.8 982.9
06 14.08 СВ 3 н/о н/о +21.8 +15.4 67 +25 +25 комфорт 1011.3 983.5 +19.1
07 14.08 С 3
{7}
н/о н/о +22.9 +15.7 64 +27 +27 душно 1011.5 983.8
08 14.08 С 5
{9}
н/о н/о +24.4 +15.9 59 +28 +28 душно 1011.7 984.1
09 14.08 С 5 н/о н/о +24.1 +14.8 56 +27 +27 жарко 1012.0 984.4
10 14.08 С 4
{9}
н/о н/о +23.9 +14.6 56 +27 +27 жарко 1012.1 984.5
11 14.08 С 5
{10}
н/о н/о +22.9 +16.0 65 +27 +27 душно 1012.1 984.4
12 14.08 СЗ 5
{10}
н/о н/о +20.7 +16.7 78 +24 +24 комфорт 1012.6 984.7
13 14.08 СЗ 5
{12}
н/о н/о +18.7 +16.7 88 +19 +19 1013.4 985.3
14 14.08 СЗ 6
{10}
н/о н/о +18.1 +17.0 93 +18 +18 1013.1 984.9
15 14.08 С 6 н/о н/о +17.9 +16.2 90 +17 +17 1012.8 984.6
16 14.08 ЮЗ 3
{8}
н/о н/о +18.0 +17.2 95 +18 +18 1013.3 985.1
17 14.08 ЮЗ 3 н/о н/о +17.9 +17.3 96 +18 +18 1013.6 985.4
18 14.08 ЮЗ 2 н/о н/о +17.9 +17.3 96 +18 +18 1013.6 985.4 +25.2 9
19 14.08 З 1 н/о н/о +17.9 +17.4 97 +19 +19 1013.7 985.5
20 14.08 ЮЗ 2 н/о н/о +17.9 +17.4 97 +18 +18 1013.8 985.6
21 14.08 Ю 2 н/о н/о +17.6 +17.3 98 +18 +18 1014.4 986.1
22 14.08 ЮЗ 2 н/о н/о +17.9 +17.6 98 +18 +18 1014.4 986.2
23 14.08 ЮЗ 2 н/о н/о +18.0 +17.8 99 +19 +19 1015.2 987.0
00 15.08 З 2 н/о н/о +17.7 +17.5 99 +18 +18 1015.4 987.1 0.1
01 15.08 СЗ 2 н/о н/о +17.7 +16.0 90 +18 +18 1015.1 986.8
02 15.08 СЗ 2 н/о н/о +17.5 +14.8 84 +18 +18 1015.3 987.0
03 15.08 СЗ 3 н/о н/о +17.3 +14.6 84 +17 +17 1015.5 987.2
04 15.08 СЗ 3 н/о н/о +16.8 +13.9 83 +17 +17 1015.7 987.3
05 15.08 СЗ 5
{9}
н/о н/о +18.4 +13.3 72 +19 +19 1016.1 987.9
06 15.08 С 4
{8}
н/о н/о +18.8 +13.4 71 +20 +20 1016.8 988.6 +16.7 0.1
07 15.08 С 5
{8}
н/о н/о +20.1 +14.0 68 +22 +22 комфорт 1017.0 988.9
08 15.08 С 4
{10}
н/о н/о +22.1 +15.0 64 +26 +26 душно 1017.2 989.3
09 15.08 С 6
{12}
н/о н/о +22.5 +14.6 61 +26 +26 жарко 1017.6 989.7
10 15.08 С 6
{11}
н/о н/о +23.6 +14.6 57 +26 +26 жарко 1017.6 989.8
11 15.08 С 6
{12}
н/о н/о +24.7 +14.5 53 +27 +27 жарко 1017.3 989.6
12 15.08 С 5
{13}
н/о н/о +25.2 +14.4 51 +28 +28 жарко 1017.1 989.5
13 15.08 С 7
{11}
н/о н/о +26.0 +13.2 45 +28 +28 жарко 1016.8 989.3
14 15.08 С 6
{10}
н/о н/о +26.3 +12.0 41 +28 +28 жарко 1016.7 989.2
15 15.08 СЗ 5
{12}
н/о н/о +26.4 +11.7 40 +28 +28 жарко 1016.4 988.9
16 15.08 С 5
{11}
н/о н/о +26.1 +12.2 42 +28 +28 жарко 1016.3 988.8
17 15.08 С 4
{8}
н/о н/о +25.3 +12.5 45 +27 +27 жарко 1016.3 988.7
18 15.08 С 2 н/о н/о +23.3 +12.9 52 +26 +26 жарко 1016.9 989.1 +26.9
19 15.08 СЗ 1 н/о н/о +21.0 +12.9 60 +25 +25 комфорт 1017.6 989.6
20 15.08 СЗ 2 н/о н/о +19.9 +12.7 63 +22 +22 комфорт 1018.1 990.0
21 15.08 СЗ 2 н/о н/о +19.2 +12.5 65 +21 +21 комфорт 1018.5 990.3
22 15.08 н/о н/о +18.4 +12.2 67 1018.6 990.3
23 15.08 СЗ 2 н/о н/о +17.7 +12.4 71 +18 +18 1018.7 990.3
00 16.08 СЗ 2 н/о н/о +16.9 +12.6 76 +17 +17 1018.6 990.2
01 16.08 СЗ 3 н/о н/о +16.6 +12.6 77 +16 +16 1018.5 990.0
02 16.08 СЗ 3 н/о н/о +16.4 +12.2 76 +16 +16 1018.4 989.9
03 16.08 СЗ 2 н/о н/о +15.7 +11.7 77 +16 +16 1018.6 990.0
04 16.08 СЗ 3 н/о н/о +15.6 +11.8 78 +15 +15 1018.7 990.1
05 16.08 С 2 н/о н/о +15.4 +12.0 80 +15 +15 1019.1 990.5
06 16.08 С 3 н/о н/о +17.8 +12.5 71 +18 +18 1018.9 990.5 +14.8
07 16.08 С 3 н/о н/о +19.9 +13.8 68 +22 +22 комфорт 1018.7 990.5
08 16.08 С 3
{7}
н/о н/о +21.6 +14.0 62 +24 +24 комфорт 1018.7 990.7
09 16.08 С 2 н/о н/о +23.5 +13.9 55 +26 +26 жарко 1018.5 990.7
10 16.08 С 3
{7}
н/о н/о +24.7 +13.9 51 +27 +27 жарко 1018.1 990.4
11 16.08 С 3
{7}
н/о н/о +26.0 +12.1 42 +27 +27 жарко 1017.6 990.0
12 16.08 С 3 н/о н/о +26.6 +11.5 39 +28 +28 жарко 1017.0 989.5
13 16.08 С 2 н/о н/о +27.4 +11.8 38 +29 +29 жарко 1016.5 989.1
14 16.08 СВ 3 н/о н/о +27.4 +11.8 38 +29 +29 жарко 1015.9 988.5
15 16.08 С 2 н/о н/о +27.6 +10.3 34 +28 +28 жарко 1015.7 988.3
16 16.08 С 2 н/о н/о +27.4 +11.0 36 +28 +28 жарко 1015.5 988.1
17 16.08 СВ 1 н/о н/о +26.5 +10.6 37 +27 +27 жарко 1015.3 987.8
18 16.08 штиль 0 н/о н/о +23.4 +16.7 66 +28 +28 душно 1015.5 987.8 +27.8
19 16.08 ЮВ 1 н/о н/о +20.3 +13.3 64 +24 +24 комфорт 1016.2 988.1
20 16.08 Ю 1 н/о н/о +19.6 +14.0 70 +22 +22 комфорт 1016.3 988.2
21 16.08 Ю 1 н/о н/о +18.7 +13.8 73 +21 +21 комфорт 1016.5 988.3
22 16.08 ЮЗ 1 н/о н/о +19.6 +13.1 66 +22 +22 комфорт 1016.5 988.4
23 16.08 ЮЗ 1 н/о н/о +18.1 +13.4 74 +19 +19 1016.7 988.4
00 17.08 ЮЗ 1 н/о н/о +17.5 +12.4 72 +19 +19 1016.4 988.1
01 17.08 штиль 0 н/о н/о +17.1 +12.4 74 +17 +17 1016.5 988.1
02 17.08 СЗ 1 н/о н/о +16.1 +12.8 81 +17 +17 1016.3 987.8
03 17.08 штиль 0 н/о н/о +14.4 +12.8 90 +14 +14 1016.2 987.6
04 17.08 штиль 0 н/о н/о +13.9 +13.0 94 +13 +13 1016.4 987.7
05 17.08 Ю 1 н/о н/о +14.2 +13.4 95 +14 +14 1016.6 987.9
06 17.08 штиль 0 н/о н/о +17.3 +14.2 82 +17 +17 1016.3 988.0 +13.3
07 17.08 ЮЗ 1 н/о н/о +19.4 +15.3 77 +22 +22 комфорт 1016.2 988.1
08 17.08 Ю 1 н/о н/о +23.2 +15.0 60 +27 +27 душно 1016.0 988.2
09 17.08 Ю 2 н/о н/о +25.0 +13.9 50 +27 +27 жарко 1016.2 988.6
10 17.08 Ю 2 н/о н/о +26.5 +14.6 48 +29 +29 жарко 1015.9 988.4
11 17.08 Ю 2 н/о н/о +26.6 +14.4 47 +29 +29 жарко 1015.6 988.1
12 17.08 Ю 3 н/о н/о +27.3 +15.0 47 +30 +30 душно 1015.2 987.8
13 17.08 Ю 2 н/о н/о +27.4 +15.1 47 +30 +30 жарко 1014.8 987.4
14 17.08 Ю 2 н/о н/о +27.9 +14.9 45 +30 +30 жарко 1014.5 987.2
15 17.08 Ю 2 н/о н/о +28.5 +14.3 42 +31 +31 душно 1014.3 987.0
16 17.08 Ю 2 н/о н/о +28.0 +14.6 44 +30 +30 жарко 1014.2 986.9
17 17.08 Ю 1 н/о н/о +27.3 +15.7 49 +30 +30 душно 1014.1 986.7
18 17.08 ЮВ 1 н/о н/о +24.3 +17.8 67 +28 +28 душно 1014.6 987.0 +28.8
19 17.08 Ю 1 н/о н/о +21.7 +17.1 75 +26 +26 душно 1015.3 987.4
20 17.08 штиль 0 н/о н/о +21.0 +16.8 77 +24 +24 комфорт 1015.9 987.9
21 17.08 ЮЗ 1 н/о н/о +20.5 +16.3 77 +25 +25 комфорт 1016.2 988.2
22 17.08 ЮЗ 1 н/о н/о +20.8 +15.8 73 +25 +25 комфорт 1016.3 988.3
23 17.08 штиль 0 н/о н/о +20.4 +15.4 73 +23 +23 комфорт 1016.5 988.4
00 18.08 ЮЗ 1 н/о н/о +18.7 +15.8 83 +21 +21 комфорт 1016.6 988.4
01 18.08 СЗ 1 н/о н/о +17.7 +15.5 87 +19 +19 1016.9 988.6
02 18.08 СЗ 2 н/о н/о +18.6 +15.7 83 +20 +20 1017.0 988.8
03 18.08 СЗ 1 н/о н/о +17.9 +15.7 87 +19 +19 1017.2 988.9
04 18.08 СЗ 1 н/о н/о +16.5 +15.4 93 +17 +17 1017.8 989.3
05 18.08 штиль 0 н/о н/о +17.0 +15.9 93 +17 +17 1017.9 989.5

 

Местоположение метеостанции Zalaegerszeg (Венгрия): широта 46.87 долгота 16.80 высота над уровнем моря 180 м.

В архиве по умолчанию представлена погода в Zalaegerszeg за последнюю неделю. Архивные данные за месяц целиком и за предыдущие месяцы, начиная с января 2011 года, Вы можете получить, выбрав интересующий диапазон дат из раскрывающегося списка и нажав кнопку "Ввод!".


*Определитесь, кто Вы:
робот инопланетянин человек

Внимание! Время в таблицах - всемирное. Для получения местного времени необходимо прибавить поправку, которая в Zalaegerszeg равна 1 ч.

Смотрите также архив погоды в соседних городах и на ближайших метеорологических станциях:

Погода в Sarmellek (Венгрия) (35 км)
Погода в Szentgotthard (Венгрия) (37 км)
Погода в Szombathely (Венгрия) (46 км)
Погода в Nagykanizsa (Венгрия) (48 км)
Погода в Kleinzicken (Австрия) (51 км)
Погода в Murska Sobota (Словения) (53 км)
Погода в Bad Radkersburg (Австрия) (66 км)
Погода в Bad Tatzmannsdorf (Австрия) (67 км)
Погода в Lutzmannsburg (Австрия) (68 км)
Погода в Bad Gleichenberg (Австрия) (68 км)

Пояснения к столбцам:

Ветер - указаны скорость ветра в м/с - средняя за 10 мин, порывы в срок и между сроками (в фигурных скобках) и направление, откуда дует ветер: С - северный, СВ - северо-восточный, В - восточный, ЮВ - юго-восточный, Ю - южный, ЮЗ - юго-западный, З - западный, СЗ - северо-западный.
Видимость - горизонтальная дальность видимости в метрах или километрах. При видимости от 1 до 10 км при отсутствии осадков обычно наблюдается дымка, при ухудшении видимости до 1 км и менее - туман. В сухую погоду видимость может ухудшаться дымом, пылью или мглою.
Явления - указаны атмосферные явления, наблюдавшиеся в срок или в последний час перед сроком; фигурными скобками обозначены явления, наблюдавшиеся между сроками (за 1-3 часа до срока); квадратными скобками обозначены град или гололедные отложения с указанием их диаметра в мм.
Облачность - указаны через наклонную черту общая и нижняя облачность в баллах и высота нижней границы облаков в метрах; квадратными скобками обозначены формы облаков: Ci - перистые, Cs - перисто-слоистые, Cc - перисто-кучевые, Ac - высококучевые, As - высокослоистые, Sc - слоисто-кучевые, Ns - слоисто-дождевые, Cu - кучевые, Cb - кучево-дождевые. Подробнее классификацию облаков см. в Атласе облаков (PDF).
T - Температура воздуха - температура, измеренная на высоте 2 м над землей.
Td - Температура точки росы - температура, при понижении до которой содержащийся в воздухе водяной пар достигнет насыщения.
f - Относительная влажность воздуха - влажноcть воздуха, измеренная на высоте 2 м над землей.
Te - Эффективная температура - температура, которую ощущает одетый по сезону человек в тени. Характеристика душности погоды. При расчете учитывается влияние влажности воздуха и скорости ветра на теплоощущения человека.
Tes - Эффективная температура на солнце - температура, которую ощущает человек, с поправкой на солнечный нагрев. Характеристика знойности погоды. Зависит от высоты солнца над горизонтом, облачности и скорости ветра. Ночью, в пасмурную погоду, а также при ветре 12 м/с и более поправка равна нулю.
P - Атмосферное давление - приведенное к уровню моря атмосферное давление.
Po - Атмосферное давление - измеренное на уровне метеостанции атмосферное давление.
Tmin - Минимальная температура - минимум температуры воздуха на высоте 2 м над землей.
Tmax - Максимальная температура - максимум температуры воздуха на высоте 2 м над землей.
R - Количество осадков - Количество выпавших осадков за период времени, мм. При наведении курсора мыши на число - период времени, за который выпало указанное количество осадков.
R24 - Количество осадков - Количество выпавших осадков за 24 часа, мм.
S - Снежный покров - Высота снежного покрова, см. При наведении курсора мыши на число - состояние снежного покрова и степень покрытия местности в баллах.